Location: Pisa
(43.7170°N, 10.3830°E)
Time: 06:15:38
(UTC+02:00)

ISS - Pass Details

Date: 16 May 2021
Orbit: 419 x 422 km, 51.6° (Epoch: 24 June)

Event Time Altitude Azimuth Distance (km) Brightness Sun altitude
Rises 02:51:35 0° 303° (WNW) 2,440 0.2 -23.4°
Reaches altitude 10° 02:53:48 10° 311° (NW) 1,571 -0.7 -23.2°
Maximum altitude 02:57:10 40° 22° (NNE) 676 -2.3 -22.9°
Drops below altitude 10° 03:00:32 10° 94° (E) 1,574 -0.6 -22.7°
Sets 03:02:45 0° 102° (ESE) 2,444 0.3 -22.5°
